[[{"header":{"parameterUnit":"m.s-1","parameterCategory":1,"la1":30.2991,"la2":30.254,"lo1":-89.0895,"lo2":-89.0444,"dy":0.0017,"dx":0.0017,"nx":28,"ny":28,"refTime":"2025-06-22T09:00:00:Z","depth":0,"parameterNumber":2,"parameterNumberName":"U-component_of_WINDS"},"data":[0,0,0,0,0,0,0,0,0,0,0,0,0,0,0,0,0,0,0,0,0,0,0,0,0,0,0,0,0,0,0,0,0,0,0,0,0,0,0,0,0,0,0,0,0,0,0,0,0,0,0,0,0,0,0,0,0,0,-1.2395,-1.2395,0,-1.2414,-1.2414,-1.2414,-1.2386,-1.2385,-1.2384,-1.2383,-1.2403,-1.2404,-1.2406,0,0,0,0,0,0,0,0,0,0,0,0,0,-1.2334,-1.2335,-1.2395,-1.2395,-1.2395,-1.2414,-1.2414,-1.2414,-1.2386,-1.2385,-1.2383,-1.2382,-1.2402,-1.2404,-1.2406,0,0,0,0,0,0,0,0,0,0,0,0,0,-1.2357,-1.2336,-1.2395,-1.2383,-1.2382,-1.2414,-1.2414,-1.2414,-1.2386,-1.2384,-1.2383,-1.2382,-1.2402,-1.2404,-1.2406,-1.245,0,0,-1.2413,-1.2414,0,0,0,0,0,0,0,0,-1.2356,-1.236,-1.2385,-1.2384,-1.2383,-1.2396,-1.24,-1.2426,-1.2386,-1.2385,-1.2383,-1.2381,-1.2402,-1.2404,-1.2411,-1.2451,-1.2451,-1.2413,-1.2414,-1.2415,-1.2416,0,0,0,0,0,0,0,-1.2355,-1.2359,-1.2402,-1.2385,-1.2384,-1.2377,-1.2379,-1.2405,-1.2401,-1.2385,-1.2383,-1.2385,-1.2401,-1.2409,-1.2411,-1.2452,-1.2413,-1.2415,-1.2416,-1.2417,-1.2528,-1.253,0,0,0,0,0,0,-1.2354,-1.2358,-1.2402,-1.2403,-1.2366,-1.2379,-1.2381,-1.2393,-1.2401,-1.2401,-1.2386,-1.2384,-1.2406,-1.2408,-1.2412,-1.2463,-1.2415,-1.2417,-1.2419,-1.2527,-1.2529,-1.253,0,0,0,0,0,0,-1.2353,-1.2358,-1.2401,-1.238,-1.2384,-1.2382,-1.2396,-1.2394,-1.2402,-1.2402,-1.2402,-1.2395,-1.2405,-1.2408,-1.244,-1.2464,-1.2418,-1.242,-1.2525,-1.2527,-1.2529,-1.2567,0,0,0,0,0,0,-1.2351,-1.2358,-1.2375,-1.238,-1.2386,-1.2429,-1.2397,-1.2396,-1.2406,-1.2402,-1.241,-1.241,-1.2404,-1.2437,-1.2443,-1.2466,-1.2422,-1.2523,-1.2526,-1.2529,-1.2564,-1.2571,-1.2576,0,0,0,0,0,-1.2349,-1.2385,-1.2376,-1.2381,-1.2406,-1.2431,-1.2434,-1.2426,-1.2408,-1.2424,-1.2425,-1.241,-1.246,-1.2441,-1.2446,-1.2471,-1.2521,-1.2525,-1.2528,-1.2561,-1.2569,-1.2576,0,0,0,0,0,0,-1.2383,-1.2385,-1.2375,-1.2413,-1.2422,-1.2426,-1.2447,-1.2435,-1.2449,-1.2445,-1.2435,-1.2437,-1.2471,-1.2474,-1.2452,-1.2513,-1.2488,-1.2493,-1.251,-1.2518,-1.2524,-1.2523,-1.2424,0,0,0,0,0,-1.2394,-1.2414,-1.2415,-1.2448,-1.2453,-1.2449,-1.246,-1.2452,-1.2461,-1.2465,-1.2467,-1.2476,-1.2494,-1.2506,-1.2522,-1.2564,-1.2565,-1.2583,-1.2589,-1.2595,-1.2599,-1.2621,-1.263,-1.2542,-1.2542,-1.2542,0,0,-1.2419,-1.2423,-1.2436,-1.2455,-1.2461,-1.2482,-1.2453,-1.2476,-1.2491,-1.2468,-1.2499,-1.2501,-1.251,-1.2547,-1.2563,-1.255,-1.2624,-1.2599,-1.2603,-1.2605,-1.2626,-1.2634,-1.2642,-1.2545,-1.2544,-1.2544,0,0,-1.2474,-1.2479,-1.2507,-1.2514,-1.2523,-1.2519,-1.2526,-1.2532,-1.2532,-1.2562,-1.2546,-1.2564,-1.2595,-1.2602,-1.261,-1.2667,-1.2654,-1.2673,-1.2706,-1.2728,-1.2734,-1.2741,-1.2762,-1.2769,-1.2677,-1.2677,-1.2677,0,-1.2504,-1.2534,-1.2524,-1.2548,-1.2557,-1.2537,-1.2566,-1.2572,-1.2586,-1.2593,-1.2578,-1.2617,-1.2621,-1.266,-1.2674,-1.268,-1.2688,-1.2672,-1.2734,-1.274,-1.2746,-1.2766,-1.2774,-1.268,-1.2679,-1.2679,-1.2679,0,-1.257,-1.2591,-1.2613,-1.2627,-1.2638,-1.2665,-1.2659,-1.2671,-1.2663,-1.2662,-1.2692,-1.2697,-1.2714,-1.2723,-1.2715,-1.276,-1.2752,-1.2736,-1.271,-1.2756,-1.2775,-1.2783,-1.2683,-1.2682,-1.2681,-1.2681,0,0,-1.2648,-1.2655,-1.2663,-1.2669,-1.2677,-1.2694,-1.2719,-1.2735,-1.2747,-1.2757,-1.2778,-1.2804,-1.2789,-1.2798,-1.2791,-1.281,-1.2855,-1.2791,-1.2791,-1.2804,-1.2906,-1.2919,-1.2928,-1.2846,-1.2848,-1.2849,-1.2905,0,-1.2704,-1.2748,-1.2739,-1.2782,-1.2801,-1.2782,-1.2804,-1.2811,-1.281,-1.2827,-1.2826,-1.2845,-1.2823,-1.2828,-1.2846,-1.2846,-1.2876,-1.2842,-1.2867,-1.2868,-1.2866,-1.2937,-1.2951,-1.3004,-1.2912,-1.2914,-1.2914,0,-1.2775,-1.2787,-1.2832,-1.2837,-1.2845,-1.2865,-1.2879,-1.2895,-1.2903,-1.29,-1.291,-1.2899,-1.2924,-1.2897,-1.2932,-1.2909,-1.2918,-1.292,-1.2922,-1.2924,-1.2895,-1.2943,-1.3021,-1.3029,-1.2926,-1.2925,-1.2924,0,-1.2828,-1.2856,-1.2887,-1.2892,-1.2898,-1.2913,-1.2916,-1.2922,-1.2932,-1.2945,-1.2951,-1.2966,-1.2975,-1.2987,-1.298,-1.2961,-1.3016,-1.2989,-1.3016,-1.3016,-1.3029,-1.3029,-1.3111,-1.3034,-1.3034,-1.3034,-1.3033,0,-1.2892,-1.2921,-1.2911,-1.293,-1.2961,-1.295,-1.2981,-1.2982,-1.2988,-1.3006,-1.299,-1.3008,-1.2998,-1.3015,-1.301,-1.3039,-1.3043,-1.3043,-1.3041,-1.3045,-1.3045,-1.3052,-1.3048,-1.3036,-1.3035,-1.3035,-1.3034,0,-1.2958,-1.2952,-1.2984,-1.2987,-1.2988,-1.3011,-1.3013,-1.3031,-1.3028,-1.3052,-1.3057,-1.3053,-1.3073,-1.3067,-1.3088,-1.3084,-1.3122,-1.3115,-1.312,-1.3118,-1.3146,-1.3144,-1.3236,-1.3248,-1.3163,-1.3163,-1.3164,0,-1.3,-1.3021,-1.3026,-1.3037,-1.3041,-1.3059,-1.307,-1.3059,-1.3071,-1.3081,-1.3098,-1.3115,-1.3129,-1.3161,-1.316,-1.3176,-1.317,-1.3201,-1.3172,-1.3175,-1.3171,-1.3171,-1.3173,-1.3207,-1.3208,-1.3209,-1.321,0,-1.3075,-1.307,-1.3086,-1.31,-1.3113,-1.3123,-1.3133,-1.3143,-1.3133,-1.3147,-1.3166,-1.3177,-1.3198,-1.3216,-1.323,-1.3233,-1.322,-1.3218,-1.3226,-1.323,-1.3232,-1.3232,-1.3136,-1.3217,-1.3216,-1.3215,-1.3215,-1.3215,-1.313,-1.3148,-1.3154,-1.3172,-1.3177,-1.3186,-1.3203,-1.3202,-1.3218,-1.3234,-1.3227,-1.3249,-1.3256,-1.3274,-1.3279,-1.3296,-1.3285,-1.3295,-1.3298,-1.3301,-1.3305,-1.3228,-1.3299,-1.3299,-1.3298,-1.3298,-1.3298,0,-1.3205,-1.3208,-1.3224,-1.3237,-1.3251,-1.3236,-1.3245,-1.3258,-1.3278,-1.3285,-1.3299,-1.3321,-1.3338,-1.3338,-1.3354,-1.3368,-1.3363,-1.3373,-1.3372,-1.3373,-1.3314,-1.3307,-1.3377,-1.3377,-1.3377,-1.3377,-1.3377,-1.3377,-1.3246,-1.3276,-1.3272,-1.3304,-1.3307,-1.3328,-1.3335,-1.3343,-1.3349,-1.3374,-1.3388,-1.3388,-1.3392,-1.3408,-1.3424,-1.3423,-1.343,-1.3443,-1.344,-1.3385,-1.3378,-1.337,-1.3363,-1.3444,-1.3444,-1.3498,-1.3499,-1.3499]},{"header":{"parameterUnit":"m.s-1","parameterCategory":1,"la1":30.2991,"la2":30.254,"lo1":-89.0895,"lo2":-89.0444,"dy":0.0017,"dx":0.0017,"nx":28,"ny":28,"refTime":"2025-06-22T09:00:00:Z","depth":0,"parameterNumber":3,"parameterNumberName":"V-component_of_WINDS"},"data":[0,0,0,0,0,0,0,0,0,0,0,0,0,0,0,0,0,0,0,0,0,0,0,0,0,0,0,0,0,0,0,0,0,0,0,0,0,0,0,0,0,0,0,0,0,0,0,0,0,0,0,0,0,0,0,0,0,0,1.8197,1.8196,0,1.8173,1.8173,1.8173,1.8114,1.8113,1.8112,1.8111,1.8087,1.8088,1.8088,0,0,0,0,0,0,0,0,0,0,0,0,0,1.8191,1.8192,1.8197,1.8196,1.8196,1.8173,1.8173,1.8173,1.8115,1.8113,1.8112,1.811,1.8087,1.8088,1.8088,0,0,0,0,0,0,0,0,0,0,0,0,0,1.8183,1.8192,1.8197,1.8164,1.8161,1.8173,1.8173,1.8172,1.8115,1.8113,1.8111,1.811,1.8087,1.8088,1.8088,1.813,0,0,1.8091,1.8091,0,0,0,0,0,0,0,0,1.8184,1.8184,1.8169,1.8167,1.8163,1.8145,1.8162,1.8158,1.8115,1.8133,1.8111,1.8109,1.8108,1.8107,1.8106,1.8129,1.8128,1.8091,1.8091,1.8092,1.8092,0,0,0,0,0,0,0,1.8184,1.8184,1.8187,1.8169,1.8165,1.8151,1.8148,1.8161,1.8131,1.8131,1.8127,1.8125,1.8106,1.8106,1.8105,1.8127,1.8091,1.8091,1.8092,1.8092,1.8181,1.8183,0,0,0,0,0,0,1.819,1.8185,1.8188,1.8187,1.8169,1.8153,1.8149,1.8153,1.8131,1.8125,1.8126,1.8122,1.8105,1.8105,1.8104,1.815,1.8092,1.8092,1.8093,1.8179,1.8182,1.8184,0,0,0,0,0,0,1.819,1.819,1.8189,1.8185,1.8183,1.8155,1.8159,1.8153,1.8153,1.8127,1.8121,1.8132,1.8104,1.8103,1.8124,1.8149,1.8093,1.8093,1.8177,1.818,1.8183,1.8243,0,0,0,0,0,0,1.819,1.8191,1.8206,1.8185,1.8184,1.8209,1.8161,1.8154,1.8154,1.8149,1.8131,1.8126,1.8102,1.8123,1.8124,1.8149,1.8094,1.8175,1.8178,1.8182,1.8239,1.8248,1.8256,0,0,0,0,0,1.819,1.8225,1.8207,1.8208,1.8203,1.821,1.8209,1.8182,1.8157,1.8172,1.8155,1.8127,1.8146,1.8125,1.8127,1.8152,1.8173,1.8177,1.8181,1.8235,1.8246,1.8255,0,0,0,0,0,0,1.825,1.8222,1.8202,1.8231,1.8224,1.8201,1.8219,1.8194,1.8194,1.8188,1.8154,1.815,1.8175,1.8166,1.8143,1.819,1.8155,1.8159,1.8195,1.8205,1.8214,1.8215,1.8095,0,0,0,0,0,1.8267,1.8275,1.825,1.8278,1.8275,1.8248,1.825,1.823,1.822,1.8217,1.8201,1.8194,1.8198,1.8201,1.8204,1.8238,1.8232,1.8255,1.8264,1.8271,1.8275,1.8291,1.83,1.8198,1.8198,1.8197,0,0,1.8301,1.8287,1.8294,1.829,1.8282,1.8291,1.8246,1.8258,1.8264,1.8219,1.8236,1.8225,1.8214,1.8241,1.8252,1.8234,1.8302,1.8276,1.8282,1.8282,1.8296,1.8306,1.8315,1.82,1.82,1.82,0,0,1.8368,1.8359,1.8381,1.8373,1.8361,1.8342,1.8348,1.8328,1.8319,1.8336,1.8301,1.8309,1.8317,1.831,1.8308,1.8372,1.8345,1.8374,1.8417,1.8433,1.8441,1.8448,1.8469,1.8478,1.8378,1.8378,1.8378,0,1.8413,1.8425,1.8395,1.8409,1.8408,1.8367,1.8388,1.8382,1.8372,1.8372,1.8351,1.836,1.835,1.8374,1.8389,1.8389,1.8394,1.8375,1.8442,1.8449,1.8455,1.8475,1.8483,1.8382,1.8381,1.8381,1.8381,0,1.848,1.8489,1.8509,1.8499,1.85,1.8518,1.849,1.8494,1.8473,1.8457,1.8475,1.8461,1.8459,1.8464,1.8444,1.8485,1.8473,1.8448,1.8412,1.8469,1.8487,1.8495,1.8387,1.8385,1.8384,1.8384,0,0,1.8584,1.8557,1.8564,1.8559,1.8542,1.8548,1.8564,1.8562,1.8566,1.8561,1.8572,1.858,1.8556,1.8554,1.8532,1.8547,1.8597,1.8519,1.8518,1.8533,1.864,1.8658,1.8667,1.8579,1.8581,1.8582,1.864,0,1.8646,1.8671,1.8644,1.8675,1.8682,1.8643,1.8657,1.8648,1.8633,1.8637,1.8621,1.8626,1.8595,1.8593,1.8605,1.8588,1.8617,1.8584,1.8589,1.859,1.8592,1.8677,1.8697,1.8752,1.8647,1.8648,1.8649,0,1.8722,1.8719,1.875,1.873,1.8733,1.8745,1.8741,1.8746,1.8734,1.8722,1.8719,1.8694,1.8707,1.8673,1.869,1.8668,1.8668,1.866,1.8662,1.866,1.8622,1.8677,1.8769,1.8777,1.8661,1.866,1.8659,0,1.8794,1.8797,1.8816,1.8813,1.879,1.88,1.8791,1.8778,1.8778,1.8775,1.8774,1.8773,1.8771,1.877,1.8745,1.8722,1.8765,1.8729,1.8755,1.8756,1.8765,1.8764,1.8858,1.8768,1.8768,1.8767,1.8767,0,1.8865,1.8885,1.8847,1.8859,1.888,1.8849,1.8871,1.8858,1.8847,1.8855,1.8821,1.8829,1.8795,1.88,1.878,1.8797,1.8797,1.8787,1.8781,1.879,1.8791,1.8789,1.8784,1.877,1.8769,1.8769,1.8768,0,1.8948,1.8923,1.8941,1.8918,1.8913,1.893,1.891,1.8919,1.8902,1.8913,1.8913,1.8886,1.889,1.8864,1.8863,1.885,1.8876,1.8864,1.8879,1.8875,1.8902,1.89,1.8997,1.9008,1.8912,1.8913,1.8914,0,1.8995,1.9009,1.8988,1.899,1.8983,1.8988,1.8988,1.8958,1.8959,1.8947,1.8958,1.8959,1.8957,1.8965,1.8945,1.8943,1.8931,1.8965,1.893,1.8937,1.893,1.8929,1.8929,1.8972,1.8973,1.8974,1.8975,0,1.908,1.9067,1.9068,1.9064,1.9065,1.9061,1.9055,1.9059,1.9026,1.9029,1.9032,1.9031,1.903,1.903,1.9025,1.9016,1.899,1.8986,1.8991,1.8999,1.9007,1.9002,1.8898,1.8983,1.8983,1.8982,1.8981,1.8981,1.9145,1.9155,1.9142,1.9144,1.9136,1.9131,1.9138,1.9121,1.9123,1.9119,1.9102,1.9107,1.9095,1.9085,1.9078,1.9082,1.9066,1.9074,1.9076,1.9079,1.9083,1.9008,1.9081,1.9081,1.9081,1.908,1.908,0,1.9227,1.9216,1.9218,1.921,1.9212,1.9187,1.9179,1.9182,1.9187,1.9178,1.9177,1.918,1.918,1.9161,1.9158,1.9165,1.9153,1.9166,1.9164,1.9162,1.9099,1.9093,1.9175,1.9175,1.9175,1.9175,1.9175,1.9175,1.927,1.9286,1.9271,1.9283,1.9272,1.9277,1.9275,1.9269,1.9262,1.9266,1.9266,1.9253,1.9239,1.9236,1.9235,1.9229,1.9229,1.9245,1.9236,1.9176,1.9167,1.9158,1.9153,1.9246,1.9246,1.9299,1.9299,1.9299]}]]